Starlink 11204

operational
NORAD ID: 60931 Int'l Des: 2024-155 Owner: SPXS Country: US Constellation: starlink
LEOCIRCULAR

Über Starlink 11204

Beschreibung wird geladen...

Live-Position

3D-Globus wird geladen...

Nächste Überflüge

Höhenverlauf

Altitude vs Time

uPlot chart will show altitude changes over time

Zweizeiliger Elementsatz

1 60931U 24155H 25354.22538465 -.00001291 00000-0 -57963-5 0 9990
2 60931 53.1597 12.8344 0001203 79.2992 280.8162 15.69713456 75924
Epoch: 20. Dez. 2025 • Age: 10 hours

Aktueller Status

Höhe 364.9 km
Geschwindigkeit 7.69 km/s
Subsatellitenpunkt -17.57°S, 116.56°W
Startdatum 31. Aug. 2024
Alter 1.3 years
Typ internet

Technische Details

Klassifizierung Payload
Masse 960.00 kg
Trockenmasse 910.00 kg
Gesamtmasse 960.00 kg
Länge 0.30 m
Durchmesser 4.10 m
Spannweite 29.00 m
Form Box + pan
Hersteller SPXS
Bus-Typ Starlink V2MD
Phasenstatus In Orbit
Besitzer/Staat SPXS/US

Große Konstellationen

Loading constellations...